• In Lithuania
  • List of Countries
  • For 7 days
  • Water Temperature
  • Satellite Maps
  • Weather Map
  • Weather Widgets
  • user-avatar
    Login

    Hourly Weather Pismenka

    Today, 16 October, Tuesday

    Time Temperature Precipitation Wind Pressure Humidity
    00:00 +12°C° 0 mm 2 mps 754 mmHg 82%
    01:00 +12°C° 0 mm 2 mps 754 mmHg 83%
    02:00 +10°C° 0 mm 2 mps 754 mmHg 84%
    03:00 +10°C° 0 mm 2 mps 754 mmHg 86%
    04:00 +9°C° 0 mm 2 mps 754 mmHg 87%
    05:00 +9°C° 0 mm 2 mps 754 mmHg 88%
    06:00 +9°C° 0 mm 2 mps 754 mmHg 88%
    07:00 +10°C° 0 mm 2 mps 754 mmHg 85%
    08:00 +10°C° 0 mm 2 mps 755 mmHg 82%
    09:00 +12°C° 0 mm 2 mps 755 mmHg 79%
    10:00 +13°C° 0 mm 2 mps 754 mmHg 73%
    11:00 +14°C° 0 mm 3 mps 754 mmHg 67%
    12:00 +16°C° 0 mm 3 mps 754 mmHg 61%
    13:00 +17°C° 0 mm 3 mps 754 mmHg 59%
    14:00 +17°C° 0 mm 3 mps 754 mmHg 57%
    15:00 +18°C° 0 mm 3 mps 754 mmHg 55%
    16:00 +17°C° 0 mm 3 mps 753 mmHg 59%
    17:00 +14°C° 0 mm 3 mps 753 mmHg 64%
    18:00 +13°C° 0 mm 3 mps 753 mmHg 69%
    19:00 +13°C° 0 mm 3 mps 753 mmHg 70%
    20:00 +12°C° 0 mm 3 mps 753 mmHg 71%
    21:00 +12°C° 0 mm 3 mps 753 mmHg 72%
    22:00 +11°C° 0 mm 3 mps 753 mmHg 73%
    23:00 +11°C° 0 mm 3 mps 753 mmHg 73%

    Tomorrow, 17 October, Wednesday

    Time Temperature Precipitation Wind Pressure Humidity
    00:00 +11°C° 0 mm 3 mps 753 mmHg 74%
    01:00 +10°C° 0 mm 3 mps 753 mmHg 76%
    02:00 +10°C° 0 mm 3 mps 753 mmHg 77%
    03:00 +10°C° 0 mm 3 mps 753 mmHg 79%
    04:00 +10°C° 0 mm 3 mps 753 mmHg 81%
    05:00 +10°C° 0 mm 3 mps 753 mmHg 82%
    06:00 +9°C° 0 mm 3 mps 752 mmHg 84%
    07:00 +10°C° 0 mm 3 mps 753 mmHg 82%
    08:00 +11°C° 0 mm 3 mps 753 mmHg 80%
    09:00 +11°C° 0 mm 3 mps 753 mmHg 77%
    10:00 +13°C° 0 mm 3 mps 753 mmHg 73%
    11:00 +14°C° 0 mm 3 mps 753 mmHg 68%
    12:00 +16°C° 0 mm 3 mps 753 mmHg 63%
    13:00 +17°C° 0 mm 3 mps 753 mmHg 62%
    14:00 +17°C° 0 mm 3 mps 753 mmHg 60%
    15:00 +18°C° 0 mm 3 mps 753 mmHg 59%
    16:00 +17°C° 0 mm 2 mps 753 mmHg 64%
    17:00 +15°C° 0 mm 2 mps 753 mmHg 69%
    18:00 +14°C° 0 mm 2 mps 753 mmHg 74%
    19:00 +14°C° 0 mm 2 mps 753 mmHg 76%
    20:00 +13°C° 0 mm 1 mps 753 mmHg 79%
    21:00 +12°C° 0 mm 1 mps 753 mmHg 81%
    22:00 +12°C° 0 mm 1 mps 753 mmHg 82%
    23:00 +12°C° 0 mm 1 mps 753 mmHg 83%

    Day after tomorrow, 18 October, Thursday

    Time Temperature Precipitation Wind Pressure Humidity
    00:00 +10°C° 0 mm 0 mps 753 mmHg 85%
    01:00 +10°C° 0 mm 0 mps 753 mmHg 85%
    02:00 +10°C° 0 mm 0 mps 753 mmHg 85%
    03:00 +9°C° 0 mm 0 mps 753 mmHg 86%
    04:00 +9°C° 0 mm 0 mps 753 mmHg 86%
    05:00 +9°C° 0 mm 0 mps 753 mmHg 86%
    06:00 +10°C° 0 mm 1 mps 753 mmHg 86%
    07:00 +11°C° 0 mm 1 mps 753 mmHg 84%
    08:00 +11°C° 0 mm 1 mps 753 mmHg 81%
    09:00 +12°C° 0 mm 1 mps 753 mmHg 79%
    10:00 +13°C° 0 mm 1 mps 753 mmHg 73%
    11:00 +15°C° 0 mm 1 mps 753 mmHg 68%
    12:00 +16°C° 0 mm 2 mps 753 mmHg 62%
    13:00 +17°C° 0 mm 2 mps 752 mmHg 61%
    14:00 +17°C° 0 mm 2 mps 752 mmHg 59%
    15:00 +18°C° 0 mm 2 mps 752 mmHg 57%
    16:00 +17°C° 0 mm 2 mps 752 mmHg 62%
    17:00 +16°C° 0 mm 2 mps 751 mmHg 67%
    18:00 +15°C° 0 mm 2 mps 751 mmHg 72%
    19:00 +14°C° 0 mm 2 mps 751 mmHg 74%
    20:00 +14°C° 0 mm 2 mps 751 mmHg 76%
    21:00 +13°C° 0 mm 2 mps 751 mmHg 77%
    22:00 +13°C° 0 mm 2 mps 751 mmHg 78%
    23:00 +13°C° 0 mm 2 mps 750 mmHg 79%

    19 October, Friday

    Time Temperature Precipitation Wind Pressure Humidity
    00:00 +13°C° 0 mm 2 mps 750 mmHg 80%
    01:00 +12°C° 0 mm 2 mps 750 mmHg 80%
    02:00 +11°C° 0 mm 3 mps 750 mmHg 80%
    03:00 +11°C° 0 mm 3 mps 750 mmHg 81%
    04:00 +11°C° 0 mm 3 mps 750 mmHg 81%
    05:00 +10°C° 0 mm 3 mps 749 mmHg 81%
    06:00 +10°C° 0 mm 3 mps 749 mmHg 81%
    07:00 +11°C° 0 mm 3 mps 749 mmHg 78%
    08:00 +11°C° 0 mm 3 mps 749 mmHg 76%
    09:00 +12°C° 0 mm 3 mps 749 mmHg 73%
    10:00 +13°C° 0 mm 3 mps 749 mmHg 68%
    11:00 +16°C° 0 mm 3 mps 748 mmHg 63%
    12:00 +17°C° 0 mm 3 mps 748 mmHg 58%
    13:00 +17°C° 0 mm 3 mps 748 mmHg 57%
    14:00 +18°C° 0 mm 4 mps 748 mmHg 56%
    15:00 +18°C° 0 mm 4 mps 747 mmHg 54%
    16:00 +17°C° 0 mm 3 mps 747 mmHg 58%
    17:00 +16°C° 0 mm 3 mps 747 mmHg 63%
    18:00 +14°C° 0 mm 3 mps 747 mmHg 67%
    19:00 +13°C° 0 mm 3 mps 747 mmHg 68%
    20:00 +14°C° 0 mm 2 mps 746 mmHg 70%
    21:00 +13°C° 0 mm 2 mps 746 mmHg 71%
    22:00 +13°C° 0 mm 2 mps 746 mmHg 73%
    23:00 +13°C° 0 mm 2 mps 746 mmHg 75%

    20 October, Saturday

    Time Temperature Precipitation Wind Pressure Humidity
    00:00 +12°C° 0 mm 2 mps 746 mmHg 76%
    01:00 +12°C° 0 mm 2 mps 746 mmHg 78%
    02:00 +12°C° 0 mm 1 mps 746 mmHg 81%
    03:00 +12°C° 0 mm 1 mps 746 mmHg 83%
    04:00 +11°C° 0 mm 1 mps 746 mmHg 85%
    05:00 +11°C° 0 mm 1 mps 746 mmHg 87%
    06:00 +11°C° 0 mm 1 mps 746 mmHg 90%
    07:00 +11°C° 0 mm 1 mps 746 mmHg 89%
    08:00 +11°C° 0 mm 1 mps 746 mmHg 89%
    09:00 +12°C° 0 mm 2 mps 746 mmHg 89%
    10:00 +13°C° 0 mm 2 mps 746 mmHg 86%
    11:00 +13°C° 0 mm 2 mps 746 mmHg 83%
    12:00 +14°C° 0 mm 2 mps 746 mmHg 80%
    13:00 +13°C° 0 mm 3 mps 746 mmHg 80%
    14:00 +13°C° 0 mm 3 mps 746 mmHg 80%
    15:00 +13°C° 0 mm 3 mps 746 mmHg 79%
    16:00 +13°C° 0 mm 3 mps 746 mmHg 81%
    17:00 +12°C° 0 mm 3 mps 746 mmHg 83%
    18:00 +12°C° 0 mm 3 mps 746 mmHg 85%
    19:00 +12°C° 0 mm 3 mps 746 mmHg 85%
    20:00 +11°C° 0 mm 3 mps 746 mmHg 85%
    21:00 +11°C° 0 mm 3 mps 746 mmHg 85%
    22:00 +11°C° 0 mm 3 mps 746 mmHg 85%
    23:00 +11°C° 0 mm 3 mps 746 mmHg 85%

    21 October, Sunday

    Time Temperature Precipitation Wind Pressure Humidity
    00:00 +11°C° 0 mm 3 mps 746 mmHg 84%
    01:00 +10°C° 0 mm 3 mps 745 mmHg 84%
    02:00 +10°C° 0 mm 3 mps 745 mmHg 84%
    03:00 +10°C° 0 mm 3 mps 745 mmHg 84%
    04:00 +10°C° 0 mm 3 mps 745 mmHg 84%
    05:00 +10°C° 0 mm 3 mps 745 mmHg 84%
    06:00 +10°C° 0 mm 3 mps 745 mmHg 84%
    07:00 +10°C° 0 mm 3 mps 745 mmHg 84%
    08:00 +10°C° 0 mm 3 mps 745 mmHg 84%
    09:00 +10°C° 0 mm 3 mps 745 mmHg 84%
    10:00 +10°C° 0 mm 3 mps 745 mmHg 82%
    11:00 +10°C° 0 mm 3 mps 745 mmHg 80%
    12:00 +11°C° 0 mm 3 mps 745 mmHg 79%
    13:00 +11°C° 0 mm 3 mps 745 mmHg 78%
    14:00 +11°C° 0 mm 3 mps 745 mmHg 78%
    15:00 +11°C° 0 mm 3 mps 744 mmHg 77%
    16:00 +11°C° 0.1 mm 3 mps 745 mmHg 79%
    17:00 +10°C° 0.1 mm 3 mps 745 mmHg 80%
    18:00 +10°C° 0.1 mm 3 mps 745 mmHg 81%
    19:00 +10°C° 0.1 mm 3 mps 745 mmHg 81%
    20:00 +9°C° 0.1 mm 3 mps 745 mmHg 81%
    21:00 +9°C° 0.1 mm 3 mps 745 mmHg 81%
    22:00 +9°C° 0 mm 3 mps 745 mmHg 81%
    23:00 +8°C° 0 mm 3 mps 745 mmHg 81%
    Show more